Date String (YYYY-MM-DD hh:mm:ss) UTC,Instrument flags,absolute air pressure of the measurement (hPa),sample flow rate (lpm),inlet stack bypass flow (lpm),air temperature of the measurement (°C),ambient temperature measured by the external sensor (°C),aerosol sample conditioner tube jacket temperature (°C),OPC LED temperature (°C),internal box temperature (°C),relative humidity of the measurement (%),span deviation,mass concentration of particles derived from Lorenz-Mie calculation of OPC scattering (μg/m³),mass concentration of particles derived from Lorenz-Mie calculation of OPC scattering (μg/m³),mass concentration of particles derived from Lorenz-Mie calculation of OPC scattering (μg/m³)
DateTimeUTC,F1_M11,P_M11,Q1_M11,Q2_M11,T1_M11,T2_M11,T3_M11,T4_M11,T5_M11,U1_M11,ZSPAN_M11,X0_M11,X2_M11,X1_M11
2023-09-07 23:00:00,SystemResetWarning,0831.3,5.00,000.00,027.7,026.3,000.0,035.8,029.4,10.4,0000.0,0004.39,0001.11,0000.76
2023-09-07 23:01:00,SystemResetWarning,0831.3,5.01,000.00,027.7,026.4,000.0,035.8,029.5,10.0,0000.0,0005.45,0001.13,0000.75
2023-09-07 23:02:00,SystemResetWarning,0831.3,4.98,000.00,027.7,025.1,000.0,035.8,029.1,10.1,0000.0,0005.51,0001.09,0000.75
2023-09-07 23:03:00,SystemResetWarning,0831.3,5.00,000.00,027.6,024.4,000.0,035.8,028.9,10.1,0000.0,0006.39,0001.10,0000.75
2023-09-07 23:04:00,SystemResetWarning,0831.3,5.02,000.00,027.6,024.6,000.0,035.7,029.0,10.3,0000.0,0006.40,0001.12,0000.75
2023-09-07 23:05:00,SystemResetWarning,0831.3,4.99,000.00,027.5,025.0,000.0,035.7,029.0,10.2,0000.0,0006.41,0001.13,0000.74
2023-09-07 23:06:00,SystemResetWarning,0831.3,4.99,000.00,027.6,025.4,000.0,035.8,029.1,10.0,0000.0,0005.79,0001.12,0000.74
2023-09-07 23:07:00,SystemResetWarning,0831.3,5.00,000.00,027.6,025.9,000.0,035.8,029.3,10.2,0000.0,0005.83,0001.06,0000.73
2023-09-07 23:08:00,SystemResetWarning,0831.3,5.01,000.00,027.7,026.3,000.0,035.8,029.4,10.0,0000.0,0006.30,0001.09,0000.74
2023-09-07 23:09:00,SystemResetWarning,0831.3,5.00,000.00,027.8,026.6,000.0,035.8,029.6,10.0,0000.0,0006.70,0001.16,0000.74
2023-09-07 23:10:00,SystemResetWarning,0831.3,4.98,000.00,027.8,026.1,000.0,035.9,029.4,10.0,0000.0,0006.81,0001.20,0000.75
2023-09-07 23:11:00,SystemResetWarning,0831.3,5.00,000.00,027.7,024.7,000.0,035.8,029.0,10.3,0000.0,0006.19,0001.20,0000.75
2023-09-07 23:12:00,SystemResetWarning,0831.3,5.02,000.00,027.6,024.6,000.0,035.8,029.0,10.2,0000.0,0004.81,0001.16,0000.74
2023-09-07 23:13:00,SystemResetWarning,0831.3,5.00,000.00,027.6,024.9,000.0,035.8,029.0,10.2,0000.0,0005.45,0001.19,0000.73
2023-09-07 23:14:00,SystemResetWarning,0831.3,5.00,000.00,027.6,025.3,000.0,035.8,029.1,10.2,0000.0,0005.25,0001.23,0000.74
2023-09-07 23:15:00,SystemResetWarning,0831.3,5.00,000.00,027.6,025.7,000.0,035.8,029.2,10.3,0000.0,0005.01,0001.23,0000.74
2023-09-07 23:16:00,SystemResetWarning,0831.3,5.01,000.00,027.7,026.2,000.0,035.8,029.4,9.9,0000.0,0005.02,0001.23,0000.74
2023-09-07 23:17:00,SystemResetWarning,0831.4,5.00,000.00,027.8,026.5,000.0,035.9,029.5,9.9,0000.0,0005.10,0001.22,0000.74
2023-09-07 23:18:00,SystemResetWarning,0831.4,5.00,000.00,027.8,026.6,000.0,035.9,029.6,10.2,0000.0,0005.18,0001.24,0000.75
2023-09-07 23:19:00,SystemResetWarning,0831.4,4.98,000.00,027.8,025.4,000.0,035.9,029.2,10.1,0000.0,0004.99,0001.23,0000.75
2023-09-07 23:20:00,SystemResetWarning,0831.4,5.01,000.00,027.7,024.5,000.0,035.9,029.0,9.8,0000.0,0004.59,0001.17,0000.74
2023-09-07 23:21:00,SystemResetWarning,0831.4,5.00,000.00,027.6,024.7,000.0,035.8,029.1,10.0,0000.0,0004.60,0001.14,0000.73
2023-09-07 23:22:00,SystemResetWarning,0831.5,5.00,000.00,027.6,025.1,000.0,035.8,029.1,9.9,0000.0,0004.75,0001.15,0000.72
2023-09-07 23:23:00,SystemResetWarning,0831.5,4.99,000.00,027.6,025.5,000.0,035.8,029.2,10.1,0000.0,0004.68,0001.16,0000.73
2023-09-07 23:24:00,SystemResetWarning,0831.5,5.00,000.00,027.7,025.9,000.0,035.9,029.4,9.8,0000.0,0003.53,0001.15,0000.74
2023-09-07 23:25:00,SystemResetWarning,0831.5,5.00,000.00,027.7,026.3,000.0,035.9,029.5,9.9,0000.0,0002.64,0001.10,0000.74
2023-09-07 23:26:00,SystemResetWarning,0831.5,4.99,000.00,027.8,025.8,000.0,035.9,029.3,10.0,0000.0,0002.56,0001.08,0000.74
2023-09-07 23:27:00,SystemResetWarning,0831.4,4.99,000.00,027.7,024.4,000.0,035.8,028.9,10.1,0000.0,0003.04,0001.12,0000.74
2023-09-07 23:28:00,SystemResetWarning,0831.4,5.02,000.00,027.6,024.3,000.0,035.8,029.0,11.2,0000.0,0003.53,0001.14,0000.75
2023-09-07 23:29:00,SystemResetWarning,0831.4,5.00,000.00,027.6,024.7,000.0,035.8,029.0,14.5,0000.0,0003.61,0001.16,0000.75
2023-09-07 23:30:00,SystemResetWarning,0831.5,5.01,000.00,027.6,025.1,000.0,035.8,029.1,14.0,0000.0,0003.37,0001.16,0000.75
2023-09-07 23:31:00,SystemResetWarning,0831.4,5.00,000.00,027.6,025.5,000.0,035.8,029.2,12.7,0000.0,0003.21,0001.16,0000.76
2023-09-07 23:32:00,SystemResetWarning,0831.5,5.00,000.00,027.7,026.0,000.0,035.8,029.3,12.5,0000.0,0003.21,0001.18,0000.76
2023-09-07 23:33:00,SystemResetWarning,0831.5,5.00,000.00,027.7,026.4,000.0,035.8,029.4,13.9,0000.0,0003.38,0001.20,0000.76
2023-09-07 23:34:00,SystemResetWarning,0831.6,4.98,000.00,027.7,025.8,000.0,035.9,029.3,14.5,0000.0,0004.06,0001.26,0000.75
2023-09-07 23:35:00,SystemResetWarning,0831.6,4.99,000.00,027.6,024.5,000.0,035.8,028.9,14.9,0000.0,0004.29,0001.25,0000.74
2023-09-07 23:36:00,SystemResetWarning,0831.6,5.02,000.00,027.5,024.3,000.0,035.8,028.9,15.4,0000.0,0004.29,0001.24,0000.74
2023-09-07 23:37:00,SystemResetWarning,0831.5,5.00,000.00,027.5,024.7,000.0,035.8,028.9,16.0,0000.0,0004.57,0001.25,0000.74
2023-09-07 23:38:00,SystemResetWarning,0831.6,5.00,000.00,027.5,025.1,000.0,035.8,029.0,16.7,0000.0,0004.09,0001.21,0000.73
2023-09-07 23:39:00,SystemResetWarning,0831.6,5.00,000.00,027.6,025.5,000.0,035.8,029.2,16.8,0000.0,0003.52,0001.18,0000.72
2023-09-07 23:40:00,SystemResetWarning,0831.6,5.00,000.00,027.6,025.9,000.0,035.8,029.3,17.0,0000.0,0003.36,0001.14,0000.71
2023-09-07 23:41:00,SystemResetWarning,0831.6,5.00,000.00,027.7,026.3,000.0,035.8,029.4,17.1,0000.0,0003.33,0001.13,0000.71
2023-09-07 23:42:00,SystemResetWarning,0831.6,5.00,000.00,027.7,026.4,000.0,035.9,029.5,17.1,0000.0,0003.38,0001.14,0000.70
2023-09-07 23:43:00,SystemResetWarning,0831.6,4.98,000.00,027.7,025.2,000.0,035.8,029.1,17.0,0000.0,0003.35,0001.11,0000.70
2023-09-07 23:44:00,SystemResetWarning,0831.6,5.01,000.00,027.6,024.3,000.0,035.8,028.8,17.5,0000.0,0002.93,0001.06,0000.69
2023-09-07 23:45:00,SystemResetWarning,0831.7,5.02,000.00,027.5,024.5,000.0,035.8,028.9,17.5,0000.0,0002.18,0000.99,0000.69
2023-09-07 23:46:00,SystemResetWarning,0831.7,4.99,000.00,027.5,024.8,000.0,035.7,028.9,17.7,0000.0,0002.13,0000.98,0000.69
2023-09-07 23:47:00,SystemResetWarning,0831.7,5.00,000.00,027.5,025.2,000.0,035.8,029.1,17.5,0000.0,0002.58,0001.02,0000.70
2023-09-07 23:48:00,SystemResetWarning,0831.7,5.00,000.00,027.6,025.7,000.0,035.8,029.2,17.7,0000.0,0002.93,0001.06,0000.69
2023-09-07 23:49:00,SystemResetWarning,0831.7,5.01,000.00,027.6,026.1,000.0,035.8,029.4,18.0,0000.0,0003.91,0001.06,0000.69
2023-09-07 23:50:00,SystemResetWarning,0832.0,4.99,000.00,027.7,026.5,000.0,035.8,029.5,17.2,0000.0,0004.58,0001.06,0000.69
2023-09-07 23:51:00,SystemResetWarning,0832.1,4.99,000.00,027.8,026.6,000.0,035.9,029.6,17.2,0000.0,0004.55,0001.06,0000.69
2023-09-07 23:52:00,SystemResetWarning,0831.8,4.99,000.00,027.7,025.4,000.0,035.9,029.2,17.2,0000.0,0004.68,0001.09,0000.69
2023-09-07 23:53:00,SystemResetWarning,0831.7,5.01,000.00,027.6,024.3,000.0,035.8,028.9,17.2,0000.0,0005.00,0001.08,0000.69
2023-09-07 23:54:00,SystemResetWarning,0831.7,5.01,000.00,027.6,024.5,000.0,035.8,029.0,17.2,0000.0,0005.02,0001.07,0000.69
2023-09-07 23:55:00,SystemResetWarning,0831.7,5.00,000.00,027.5,024.8,000.0,035.8,029.0,17.3,0000.0,0005.18,0001.10,0000.70
2023-09-07 23:56:00,SystemResetWarning,0831.8,4.99,000.00,027.6,025.3,000.0,035.8,029.1,17.3,0000.0,0005.55,0001.14,0000.71
2023-09-07 23:57:00,SystemResetWarning,0832.1,5.02,000.00,027.6,025.7,000.0,035.8,029.3,16.9,0000.0,0005.44,0001.14,0000.71
2023-09-07 23:58:00,SystemResetWarning,0832.1,5.01,000.00,027.7,026.1,000.0,035.8,029.4,17.0,0000.0,0005.07,0001.10,0000.71
2023-09-07 23:59:00,SystemResetWarning,0832.0,5.00,000.00,027.7,026.5,000.0,035.9,029.5,17.0,0000.0,0004.21,0001.01,0000.71
